Terminal Aerodrome Forecast
Issued by NWS Twin Cities, MN

Home | Current Version | Previous Version | Graphics & Text | Print | Product List | Glossary On
Versions: 1 2 3 4 5 6 7 8 9 10 11 12 13 14 15 16 17 18 19 20 21 22 23 24 25 26 27 28 29
000
FTUS43 KMPX 022053 AAA
TAFMSP
TAF AMD
KMSP 022053Z 0221/0324 20010G16KT P6SM FEW080
     FM030100 18007KT P6SM SCT250
     FM031500 17008KT P6SM SCT050 BKN090
     FM031800 19008KT P6SM VCSH SCT035 BKN050
     FM032100 31008KT P6SM VCSH SCT035 BKN040=

USA.gov is the U.S. government's official web portal to all federal, state and local government web resources and services.